sat.trackr.live / text

‹ back to catalog

ORS-5 SENSORSAT

NORAD 42921 · 2017-050A

PAYLOAD ACTIVE UNKNOWN

§ Identity

Operator
Country
US
Launch date
2017-08-26
Launch site
AFETR
Launch vehicle
Mass (kg)
RCS (m²)

External: N2YO · Heavens-Above · Gunter

§ Orbital elements

Epoch: 2026-09-19T20:54:15.957792Z

Period
95.93 min
Inclination
0.0475°
Eccentricity
0.0010354
Mean motion
15.01164079 rev/d
Perigee alt
556.1 km
Apogee alt
570.5 km
Semi-major
6,941.4 km
B*
9.5695e-5
RAAN
159.4411°
Arg perigee
35.8436°
Mean anomaly
164.6840°
Rev number
49,527

§ Raw data

ORS-5 SENSORSAT1 42921U 17050A   26262.87101803  .00002099  00000+0  95695-4 0  99942 42921   0.0475 159.4411 0010354  35.8436 164.6840 15.01164079495273

JSON: /api/v1/satellites/42921 · /tle

For live sub-satellite position, see the globe view (requires WebGL).

§ Visibility from observer

Set your observer location to see the next 7 days of passes ≥ 10°. The values pass through the URL so the page stays shareable.

No JS? Fill the form by hand. The geolocation button needs JavaScript.